FW2486 Weather Reports


Display with metric or nautical units.
time (UTC)temp
F
wind
direction
speed
MPH
gust
MPH
rain 1hr
in
rain 24hr
in
rain mn
in
humidity
%
barometer
mb
20260904113031 48 165 0.0 3.0 0.01 0.02 0.01 98 1015.1
20260904111535 48 157 0.0 1.0 0.01 0.02 0.01 98 1015.0
20260904110109 48 157 0.0 2.0 0.01 0.02 0.00 98 1014.9
20260904104532 48 157 0.0 2.0 0.00 0.01 0.00 98 1014.8
20260904103036 47 179 0.0 2.0 0.00 0.01 0.00 98 1014.7
20260904101645 0 0 0.0 0.0 0.00 0.01 0.00 100
20260904093106 47 166 1.0 3.0 0.00 0.01 0.00 97 1014.3
20260904091609 47 218 0.0 2.0 0.00 0.01 0.00 97 1014.3
20260904090034 47 225 0.0 4.0 0.00 0.01 0.00 97 1014.3
20260904084532 48 184 1.0 4.0 0.00 0.01 0.00 97 1014.2
20260904083036 48 180 1.0 4.0 0.00 0.01 0.00 97 1014.1
20260904081536 49 198 1.0 3.0 0.00 0.01 0.00 97 1014.2
20260904080038 48 167 2.0 4.0 0.00 0.01 0.00 97 1014.2
20260904073036 48 200 0.0 2.0 0.00 0.01 0.00 97 1014.1
20260904071535 48 180 0.0 3.0 0.00 0.01 0.00 97 1014.2
20260904070035 48 192 2.0 3.0 0.00 0.01 0.00 96 1014.1
20260904064535 47 195 0.0 3.0 0.00 0.01 0.01 96 1014.1
20260904063036 48 202 0.0 1.0 0.00 0.01 0.01 96 1014.1
20260904061605 48 202 0.0 0.0 0.00 0.01 0.01 96 1014.0
20260904060149 49 202 0.0 2.0 0.00 0.01 0.01 96 1014.0
20260904054537 49 202 0.0 2.0 0.00 0.01 0.01 96 1014.0
20260904053037 49 202 0.0 2.0 0.00 0.01 0.01 96 1014.0
20260904051607 50 202 1.0 2.0 0.00 0.01 0.01 96 1014.0
20260904050034 50 177 1.0 3.0 0.00 0.01 0.01 95 1014.0
20260904043035 51 174 2.0 3.0 0.00 0.10 0.01 95 1014.1
20260904041531 51 247 0.0 0.0 0.00 0.10 0.01 95 1014.1
20260904040034 50 247 0.0 1.0 0.00 0.10 0.01 94 1014.1
20260904034537 50 247 0.0 2.0 0.00 0.10 0.01 94 1014.0
20260904033107 51 247 0.0 1.0 0.00 0.10 0.01 93 1013.9
20260904031530 50 229 1.0 3.0 0.00 0.10 0.01 92 1013.6
20260904030141 51 202 0.0 1.0 0.00 0.10 0.01 91 1013.6
20260904024535 52 202 0.0 1.0 0.00 0.10 0.01 90 1013.5
20260904021534 55 235 1.0 4.0 0.00 0.11 0.01 88 1013.4
20260904020034 56 324 0.0 2.0 0.00 0.11 0.01 86 1013.2
20260904014534 56 8 1.0 2.0 0.00 0.11 0.01 85 1013.2
20260904013032 56 6 2.0 5.0 0.00 0.11 0.01 84 1013.2
20260904004616 59 304 4.0 9.0 0.00 0.13 0.01 80 1013.0
20260904003037 60 327 4.0 9.0 0.00 0.17 0.01 80 1012.9
20260904001534 60 345 3.0 7.0 0.00 0.18 0.01 83 1012.8
20260904000037 59 320 3.0 5.0 0.00 0.20 0.01 82 1012.8
20260903234535 59 281 2.0 4.0 0.00 0.22 0.01 83 1013.0
20260903233032 57 5 0.0 3.0 0.00 0.23 0.01 82 1013.1
20260903230033 61 198 3.0 9.0 0.00 0.25 0.01 73 1013.3
20260903224530 62 223 1.0 4.0 0.00 0.26 0.01 73 1013.3
20260903221605 62 15 3.0 6.0 0.00 0.27 0.01 74 1013.1
20260903220034 63 335 4.0 8.0 0.00 0.28 0.01 73 1013.1
20260903214642 63 326 3.0 8.0 0.00 0.28 0.01 74 1013.1
20260903213038 62 310 4.0 7.0 0.00 0.28 0.01 75 1013.1
20260903211606 61 339 3.0 6.0 0.00 0.31 0.01 77 1013.2
20260903210032 61 289 4.0 6.0 0.00 0.32 0.01 78 1013.4
20260903204530 60 328 3.0 6.0 0.00 0.33 0.01 77 1013.4
20260903203032 60 334 3.0 7.0 0.00 0.34 0.01 77 1013.5
20260903200107 58 313 5.0 10.0 0.00 0.36 0.01 82 1013.7
20260903194535 58 320 5.0 11.0 0.00 0.36 0.01 82 1013.9
20260903193036 58 339 5.0 9.0 0.00 0.36 0.01 83 1014.0
20260903191536 58 341 5.0 9.0 0.00 0.36 0.01 85 1014.1
20260903190036 57 333 6.0 11.0 0.00 0.36 0.01 89 1014.4
20260903184535 56 314 5.0 9.0 0.00 0.36 0.01 92 1014.5
20260903183031 55 334 4.0 10.0 0.00 0.36 0.01 94 1014.4
20260903181607 55 320 4.0 9.0 0.00 0.36 0.01 95 1014.5
20260903180028 55 4 2.0 8.0 0.00 0.36 0.01 96 1014.6
20260903173036 52 323 6.0 11.0 0.00 0.36 0.01 99 1014.3
20260903170036 50 327 3.0 6.0 0.00 0.36 0.01 99 1014.6
20260903164534 50 274 1.0 3.0 0.01 0.36 0.01 99 1014.8
20260903163034 48 223 1.0 3.0 0.01 0.36 0.01 99 1014.7
20260903161532 0 0 0.0 0.0 0.01 0.36 0.00 100
20260903160106 47 343 2.0 4.0 0.01 0.36 0.00 98 1014.4
20260903154532 0 0 0.0 0.0 0.00 0.35 0.00 100
20260903150035 0 0 0.0 0.0 0.00 0.35 0.00 100
20260903144534 0 0 0.0 0.0 0.00 0.35 0.00 100
20260903141534 0 0 0.0 0.0 0.00 0.35 0.00 100
20260903140032 0 0 0.0 0.0 0.00 0.35 0.00 100
20260903134535 0 0 0.0 0.0 0.00 0.35 0.00 100
20260903133036 0 0 0.0 0.0 0.00 0.35 0.00 100
20260903131535 0 0 0.0 0.0 0.00 0.35 0.00 100
20260903130035 0 0 0.0 0.0 0.00 0.35 0.00 100
20260903124534 0 0 0.0 0.0 0.00 0.35 0.00 100
20260903123034 0 0 0.0 0.0 0.00 0.35 0.00 100
20260903121534 0 0 0.0 0.0 0.00 0.35 0.00 100
20260903120035 0 0 0.0 0.0 0.00 0.35 0.00 100
20260903114533 0 0 0.0 0.0 0.00 0.35 0.00 100